Calgary Springbank,

9:31 AM MDT on October 19, 2017 (GMT -0600)
Calgary Springbank

Weather History for CYBW - March, 2011

Change the Weather History Date:

Sunday, March 27, 2011

  Actual Average Record
Temperature  
Mean Temperature 24 °F -  
Max Temperature 27 °F 45 °F 69 °F (2015)
Min Temperature 21 °F 23 °F 12 °F (2001)
Degree Days  
Heating Degree Days 41    
Moisture  
Dew Point 24 °F    
Average Humidity 93    
Maximum Humidity 100    
Minimum Humidity 88    
Precipitation  
Precipitation 0.00 in - - ()
Sea Level Pressure  
Sea Level Pressure 29.87 in    
Wind  
Wind Speed 7 mph ()    
Max Wind Speed 9 mph    
Max Gust Speed -    
Visibility 3.2 miles    
Events Fog , Snow    
Averages and records for this station are not official NWS values.
T = Trace of Precipitation, MM = Missing Value Source: Averaged Metar Reports

Daily Weather History Graph

Daily Weather History Graph

Search for Another Location

Airport or City:

Trip Planner

Search our weather history database for the weather conditions in past years. The results will help you decide how hot, cold, wet, or windy it might be!

Date:

Astronomy

Mar. 27, 2011 Rise Set
Actual Time 7:24 AM MDT 8:01 PM MDT
Civil Twilight 6:51 AM MDT 8:35 PM MDT
Nautical Twilight 6:11 AM MDT 9:15 PM MDT
Astronomical Twilight 5:30 AM MDT 9:57 PM MDT
Moon 4:25 AM MDT (3/27) 1:04 PM MDT (3/27)
Length of Visible Light 13h 43m
Length of Day
12h 37m
Last Quarter, 38% of the Moon is Illuminated
Mar 27
Last Quarter
Apr 3
New
Apr 11
First Quarter
Apr 17
Full
Apr 24
Last Quarter

Hourly Weather History & Observations

Time (MDT) Temp. Windchill Dew Point Humidity Pressure Visibility Wind Dir Wind Speed Gust Speed Precip Events Conditions
5:00 AM 24.8 °F 16.9 °F 23.0 °F 93% 29.85 in 0.0 mi SSE 6.9 mph - N/A Fog , Snow Light Snow Grains
6:00 AM 25 °F - 23 °F 88% 29.85 in 0 mi SSE 6.9 mph - - Snow Snow Grains
6:00 AM 24.8 °F 16.9 °F 23.0 °F 93% 29.85 in 0.0 mi SSE 6.9 mph - N/A Fog , Snow Light Snow Grains
7:00 AM 24.8 °F 16.9 °F 23.0 °F 93% 29.85 in 0.0 mi SSE 6.9 mph - N/A Fog , Snow Light Snow Grains
8:00 AM 24.8 °F 17.9 °F 23.0 °F 93% 29.86 in 0.0 mi SSE 5.8 mph - N/A Fog , Snow Light Snow Grains
9:00 AM 24.8 °F 16.9 °F 23.0 °F 93% 29.86 in 0.0 mi SE 6.9 mph - N/A Fog , Snow Light Snow Grains
10:00 AM 24.8 °F 16.9 °F 23.0 °F 93% 29.86 in 0.1 mi SSE 6.9 mph - N/A Fog , Snow Light Snow Grains
11:00 AM 24.8 °F 16.1 °F 23.0 °F 93% 29.86 in 0.1 mi SE 8.1 mph - N/A Fog , Snow Light Snow Grains
11:53 AM - - - N/A% - 0.2 mi SSE 6.9 mph - N/A Fog , Snow Light Snow Grains
12:00 PM 25 °F - 24 °F 94% 29.86 in 0 mi SSE 6.9 mph - - Snow Snow Grains
12:00 PM 24.8 °F 16.9 °F 24.8 °F 100% 29.86 in 0.4 mi SE 6.9 mph - N/A Fog , Snow Light Snow Grains
1:00 PM 24.8 °F 16.1 °F 23.0 °F 93% 29.86 in 0.2 mi SE 8.1 mph - N/A Fog , Snow Light Snow Grains
1:20 PM - - - N/A% - 0.4 mi South 8.1 mph - N/A Fog Light Freezing Fog
2:00 PM 26.6 °F 18.2 °F 24.8 °F 93% 29.86 in 0.2 mi South 8.1 mph - N/A Fog Light Freezing Fog
3:00 PM 26.6 °F 18.2 °F 24.8 °F 93% 29.86 in 0.6 mi SE 8.1 mph - N/A   Overcast
4:00 PM 26.6 °F 17.5 °F 26.6 °F 100% 29.87 in 4.0 mi SSE 9.2 mph - N/A   Overcast
4:56 PM - - - N/A% - 6.0 mi SE 9.2 mph - N/A   Overcast
5:00 PM 26.6 °F 17.5 °F 24.8 °F 93% 29.88 in 6.0 mi SE 9.2 mph - N/A Snow Light Snow
6:00 PM 26 °F - 24 °F 91% 29.89 in 6 mi SE 8.1 mph - - Snow Light Snow
6:00 PM 26.6 °F 17.5 °F 24.8 °F 93% 29.89 in 6.0 mi SE 9.2 mph - N/A Snow Light Snow
7:00 PM 26.6 °F 19.1 °F 24.8 °F 93% 29.89 in 8.0 mi SSE 6.9 mph - N/A Snow Light Snow
8:00 PM 24.8 °F 17.9 °F 23.0 °F 93% 29.90 in 10.0 mi SE 5.8 mph - N/A Snow Light Snow
8:31 PM - - - N/A% - 8.0 mi SE 6.9 mph - N/A   Overcast
8:50 PM - - - N/A% - 8.0 mi SSE 8.1 mph - N/A   Unknown
9:00 PM 24.8 °F 16.9 °F 23.0 °F 93% 29.92 in 8.0 mi SSE 6.9 mph - N/A Snow Light Snow
10:00 PM 24.8 °F 16.1 °F 23.0 °F 93% 29.92 in 10.0 mi SE 8.1 mph - N/A Snow Light Snow